WetterOnline ( https://www.wetteronline.de )

Wetter aktuell Möhnesee

Aktuelles Wetter: Werl (84m)

6-stündlich | Neueste Meldungen
Ortszeit Temperatur Wetter
Fr, 05.03. 13:00 4.1° C wolkig
Fr, 05.03. 7:00 -0.7° C leicht bewölkt
Fr, 05.03. 1:00 2.8° C bedeckt
Do, 04.03. 19:00 3.1° C Sprühregen
Do, 04.03. 13:00 3.7° C leichter Regen
Do, 04.03. 7:00 3.5° C bedeckt
Do, 04.03. 1:00 4.9° C wolkig
Mi, 03.03. 19:00 10.6° C leicht bewölkt
Ortszeit Temperatur Wetter
Fr, 05.03. 17:00 4.6° C wolkenlos
Fr, 05.03. 16:50 4.6° C wolkenlos
Fr, 05.03. 16:40 4.8° C wolkenlos
Fr, 05.03. 16:30 4.6° C fast wolkenlos
Fr, 05.03. 16:20 4.6° C fast wolkenlos
Fr, 05.03. 16:10 5.1° C fast wolkenlos
Fr, 05.03. 16:00 4.3° C fast wolkenlos
Fr, 05.03. 15:30 4.9° C leicht bewölkt
Fr, 05.03. 15:00 4.8° C leicht bewölkt
Fr, 05.03. 14:30 4.5° C leicht bewölkt
Fr, 05.03. 14:00 3.6° C leicht bewölkt
Ortszeit Relative Feuchte Sichtweite
Fr, 05.03. 13:00 59% 55 km
Fr, 05.03. 7:00 83% 50 km
Fr, 05.03. 1:00 86% 25 km
Do, 04.03. 19:00 97% 6 km
Do, 04.03. 13:00 96% 9 km
Do, 04.03. 7:00 97% 2.5 km
Do, 04.03. 1:00 91% 8 km
Mi, 03.03. 19:00 68% 18 km
Ortszeit Relative Feuchte Sichtweite
Fr, 05.03. 17:00 44% >70 km
Fr, 05.03. 16:50 44% -
Fr, 05.03. 16:40 48% -
Fr, 05.03. 16:30 50% >70 km
Fr, 05.03. 16:20 50% -
Fr, 05.03. 16:10 51% -
Fr, 05.03. 16:00 47% >70 km
Fr, 05.03. 15:30 48% 65 km
Fr, 05.03. 15:00 57% 65 km
Fr, 05.03. 14:30 52% 50 km
Fr, 05.03. 14:00 55% 65 km
Ortszeit Niederschlagsmenge Niederschlagsart
Fr, 05.03. 13:00 0.0 l/m2 in 6 Std. -
Fr, 05.03. 7:00 0.2 l/m2 in 12 Std. Sprühregen
Fr, 05.03. 1:00 0.2 l/m2 in 6 Std. Regen
Do, 04.03. 19:00 11 l/m2 in 12 Std. Regen
Do, 04.03. 13:00 10 l/m2 in 6 Std. Regen
Do, 04.03. 7:00 0.1 l/m2 in 12 Std. Sprühregen
Do, 04.03. 1:00 0.0 l/m2 in 6 Std. -
Mi, 03.03. 19:00 0.0 l/m2 in 12 Std. -
Ortszeit Niederschlagsmenge Niederschlagsart
Fr, 05.03. 17:00 0.0 l/m2 in 1 Std. -
Fr, 05.03. 16:50 keine Meldung -
Fr, 05.03. 16:40 keine Meldung -
Fr, 05.03. 16:30 0.0 l/m2 in 1 Std. -
Fr, 05.03. 16:20 keine Meldung -
Fr, 05.03. 16:10 keine Meldung -
Fr, 05.03. 16:00 0.0 l/m2 in 1 Std. -
Fr, 05.03. 15:30 0.0 l/m2 in 1 Std. -
Fr, 05.03. 15:00 0.0 l/m2 in 1 Std. -
Fr, 05.03. 14:30 0.0 l/m2 in 1 Std. -
Fr, 05.03. 14:00 0.0 l/m2 in 1 Std. -
Ortszeit Stärke Spitze Richtung
km/h Bft. km/h Grad Sektor
Fr, 05.03. 13:00 15 3 30 30° NO
Fr, 05.03. 7:00 7 2 29 350° N
Fr, 05.03. 1:00 9 2 22 320° NW
Do, 04.03. 19:00 7 2 14 250° W
Do, 04.03. 13:00 9 2 17 330° NW
Do, 04.03. 7:00 6 1 11 360° N
Do, 04.03. 1:00 6 1 7 280° W
Mi, 03.03. 19:00 7 2 25 270° W
Ortszeit Stärke Spitze Richtung
km/h Bft. km/h Grad Sektor
Fr, 05.03. 17:00 11 2 22 40° NO
Fr, 05.03. 16:50 11 2 - 40° NO
Fr, 05.03. 16:40 9 2 - 40° NO
Fr, 05.03. 16:30 13 3 22 20° N
Fr, 05.03. 16:20 13 3 - 20° N
Fr, 05.03. 16:10 11 2 - 30° NO
Fr, 05.03. 16:00 11 2 22 30° NO
Fr, 05.03. 15:30 7 2 22 40° NO
Fr, 05.03. 15:00 14 3 22 40° NO
Fr, 05.03. 14:30 13 3 22 20° N
Fr, 05.03. 14:00 15 3 30 40° NO
Ortszeit Untergrenze Bedeckung Gattung
total tief tief mittel hoch
Fr, 05.03. 13:00 1080 m 5/8 5/8 - - -
Fr, 05.03. 7:00 780 m 3/8 3/8 - - -
Fr, 05.03. 1:00 660 m 8/8 8/8 - - -
Do, 04.03. 19:00 120 m 7/8 7/8 - - -
Do, 04.03. 13:00 90 m 8/8 8/8 - - -
Do, 04.03. 7:00 90 m 8/8 8/8 - - -
Do, 04.03. 1:00 3900 m 4/8 6/8 - - -
Mi, 03.03. 19:00 9000 m 6/8 0/8 - - -
Ortszeit Bedeckungsgrad in Achtel und Wolkenuntergrenze
Fr, 05.03. 17:00 keine Wolken
Fr, 05.03. 16:50 keine Wolken
Fr, 05.03. 16:40 keine Wolken
Fr, 05.03. 16:30 1(1410m)
Fr, 05.03. 16:20 1(1410m)
Fr, 05.03. 16:10 1(1410m)
Fr, 05.03. 16:00 1(1350m)
Fr, 05.03. 15:30 3(1320m)
Fr, 05.03. 15:00 3(1260m)
Fr, 05.03. 14:30 2(1230m)
Fr, 05.03. 14:00 2(1170m)
Ortszeit Luftdruck NN (hPa) Tendenz (hPa in 3 Std.)
Fr, 05.03. 13:00 1030 + 1,2
Fr, 05.03. 7:00 1026 + 2,2
Fr, 05.03. 1:00 1022 + 1,0
Do, 04.03. 19:00 1020 + 0,2
Do, 04.03. 13:00 1020 - 0,8
Do, 04.03. 7:00 1021 - 1,2
Do, 04.03. 1:00 1024 - 0,8
Mi, 03.03. 19:00 1026 - 0,5
Ortszeit Luftdruck NN (hPa) Tendenz (hPa in 3 Std.)
Fr, 05.03. 17:00 1030 + 0,6
Fr, 05.03. 16:50 1030 keine Meldung
Fr, 05.03. 16:40 1030 keine Meldung
Fr, 05.03. 16:30 1030 + 0,6
Fr, 05.03. 16:20 1030 keine Meldung
Fr, 05.03. 16:10 1030 keine Meldung
Fr, 05.03. 16:00 1030 + 0,6
Fr, 05.03. 15:30 1030 + 0,5
Fr, 05.03. 15:00 1030 + 0,6
Fr, 05.03. 14:30 1030 + 0,8
Fr, 05.03. 14:00 1030 + 1,1
Ortszeit Schneehöhe (cm)
Fr, 05.03. 13:00 0
Fr, 05.03. 7:00 0
Fr, 05.03. 1:00 0
Do, 04.03. 19:00 0
Do, 04.03. 13:00 0
Do, 04.03. 7:00 0
Do, 04.03. 1:00 0
Mi, 03.03. 19:00 0
Ortszeit Schneehöhe (cm)
Fr, 05.03. 17:00 0
Fr, 05.03. 16:50 0
Fr, 05.03. 16:40 0
Fr, 05.03. 16:30 0
Fr, 05.03. 16:20 0
Fr, 05.03. 16:10 0
Fr, 05.03. 16:00 0
Fr, 05.03. 15:30 0
Fr, 05.03. 15:00 0
Fr, 05.03. 14:30 0
Fr, 05.03. 14:00 0
Link zu dieser Seite / Seite empfehlen

Das Wetter in ...